Regional Weather Roundup
Issued by NWS Charleston, SC

Current Version | Previous Version | Graphics & Text | Print | Product List | Glossary On
Versions: 1 2 3 4 5 6 7 8 9 10 11 12 13 14 15 16 17 18 19 20 21 22 23 24 25 26 27 28 29 30 31 32 33 34 35 36 37 38 39 40 41 42 43 44 45 46 47 48 49 50
000
ASUS42 KCHS 151412
RWRCHS

Regional Weather Roundup
National Weather Service Charleston SC
900 AM EST FRI DEC 15 2017

NOTE: "fair" indicates few or no clouds below 12,000 feet with no
significant weather and/or obstructions to visibility.

Not all stations are quality controlled. Use data with caution,
especially dewpoint observations.

SCZ027-030-031-034>040-042>050-151500-
...Southeast South Carolina...

CITY           SKY/WX    TMP DP  RH WIND       PRES   REMARKS
N Charleston   CLOUDY    49  41  74 W5        30.02R
Waterfront Prk   N/A     51  42  71 VRB2      29.85F
Mount Pleasant FAIR      48  43  81 CALM      30.02R
Johns Island   FAIR      52  41  66 SW6       30.02S
Pinopolis        N/A     46  39  76 SW5       29.92F
Moncks Corner  FAIR      43  41  93 CALM      30.01S FOG
Summerville    FAIR      45  41  87 CALM      30.03R
Beaufort MCAS  CLOUDY    50  44  80 SW6       30.03R
Beaufort Arpt  FAIR      50  43  76 S6        30.02R
Hilton Head Is PTSUNNY   52  41  66 W5        30.03S
Walterboro     CLOUDY    45  41  87 CALM      30.02S
Allendale      FAIR      45  41  87 CALM      30.01R

...Southern Midlands and Pee Dee...

CITY           SKY/WX    TMP DP  RH WIND       PRES   REMARKS
Georgetown     FAIR      46  43  87 CALM      30.01S
Kingstree      FAIR      43  39  87 CALM      30.00S
Orangeburg     MOSUNNY   43  40  89 CALM      30.01R
Barnwell         N/A     46  41  81 SW3       30.01R
Aiken          FAIR      39  36  87 CALM      30.03R
Manning        FAIR      43  37  81 MISG      30.01R
Columbia       CLOUDY    44  39  82 CALM      30.00R
Sumter         MOSUNNY   46  37  69 W6        29.97R
Florence       SUNNY     44  39  82 W3        29.99R
Myrtle Beach   MOSUNNY   49  40  71 SW5       30.01R
N Myrtle Beach MOSUNNY   49  41  74 CALM      29.99R

$$

GAZ063-065-086>088-099>101-113>116-118-119-134>141-150-151500-
...Southeast Georgia...

CITY           SKY/WX    TMP DP  RH WIND       PRES   REMARKS
Savannah Arpt  CLOUDY    51  43  74 SW6       30.03S
Hunter AAF     CLOUDY    51  43  76 CALM      30.00S
Fort Stewart   CLOUDY    47  44  87 CALM      30.03R
Statesboro     MOSUNNY   48  41  77 CALM      30.03S
Sylvania       MOSUNNY   47  43  85 CALM      30.03R
Claxton        FAIR      44  43  97 CALM      30.04R

...CSRA, Central and far Southeast Georgia...

CITY           SKY/WX    TMP DP  RH WIND       PRES   REMARKS
Thomson        PTSUNNY   38  36  92 W3        30.07R
Augusta-Bush   CLOUDY    43  41  93 CALM      30.01R
Augusta-Daniel MOSUNNY   46  37  71 CALM      30.01R
Swainsboro     FAIR      43  43 100 CALM      30.03R
Vidalia        CLOUDY    46  43  87 CALM      30.04R
Eastman        FAIR      44  38  78 CALM      30.06S
Hazlehurst     FAIR      49  40  72 CALM      30.04R
Alma           MOSUNNY   48  44  86 CALM      30.04S
Waycross       CLOUDY    50  47  90 CALM      30.06R
Jesup          NOT AVBL
Baxley         FAIR      45  45 100 CALM      30.05R
Brunswick      SUNNY     52  45  76 SW3       30.06R
Saint Simons   MOSUNNY   54  49  83 MISG      30.05R

$$

SCZ027-028-034-036>038-045-046-048>050-GAZ119-141-151500-
...Lake and Supplemental Coastal Observations...

STATION/POSITION TIME  TEMP    WIND        PRES    WAVE   SWELL
                       AIR SEA DIR/SP/G            HT/PER HT/PER/DIR
                 (UTC) (F)     (DEG/KT/KT) (MB)    (FT/S) (FT/S/D)
Winyah Bay       NOT AVBL
Lake Murray      1320   41     320/  1/  6 1014.9
ACE Basin NERRS  NOT AVBL
Fort Pulaski     1348   51 53  230/  3/  5 1017.5R
Sapelo Island    NOT AVBL

$$

ANZ835-935-AMZ111-154-330-350-352-354-370-450-454-472-151500-
...C-MAN and Buoy Observations...

STATION/POSITION TIME  TEMP    WIND        PRES    WAVE   SWELL
                       AIR SEA DIR/SP/G            HT/PER HT/PER/DIR
                 (UTC) (F)     (DEG/KT/KT) (MB)    (FT/S) (FT/S/D)
Buoy 41004       1350   62 73  250/ 12/ 16 1016.2R   2/ 5
Buoy 41008       1350   56 59  240/ 10/ 12 1017.5R   1/ 4
Folly Beach CMAN 1300   50     230/  4/  5 1016.5F
Capers Nearshore 1308   50 54  250/  8/ 12 1015.7F


STATION/POSITION TIME  TEMP    WIND        PRES    WAVE   SWELL
                       AIR SEA DIR/SP/G            HT/PER HT/PER/DIR
                 (UTC) (F)     (DEG/KT/KT) (MB)    (FT/S) (FT/S/D)
5E St. Marys GA  1330      62                N/A     1/12
Frying Pan Buoy  1350   61 67  250/ 10/ 14 1015.6R   3/ 6   2/200/ 6
Buoy 41025       1350   63 74  200/ 10/ 16 1014.8R   4/ 7   3/190/ 7
Cape Lookout NC  1300           CALM  /  1 1015.4R
Buoy 41002       1350   71 74  240/ 12/ 14 1016.9R   6/ 8   5/260/ 8
Buoy 41010       NOT AVBL
St Augustine FL  1400   60 63  230/  5/  6 1018.5R


$$



USA.gov is the U.S. government's official web portal to all federal, state and local government web resources and services.